ORBCOMM FM01 [-]

Last updated on July 6, 2021, 3:36 p.m. UTC

1 23545U 95017A   21186.91362248  .00000351  00000-0  67816-4 0  9995
2 23545  69.9701 359.0165 0007564 303.1373  56.9046 14.71907217399835
UTC
Height (km)
Latitude
Longitude
Inclination
Orbital Period
UTC large
Height (km)
Speed (km/s)
/
Latitude / Longitude
Inclination (degrees)
Orbital Period (minutes)
Azimuth
Elevation
Range (km)
Doppler Factor
iOS Compass Heading
iOS Angle